Regional Weather Roundup
Issued by NWS Cleveland, OH

Home | Current Version | Previous Version | Graphics & Text | Print | Product List | Glossary On
Versions: 1 2 3 4 5 6 7 8 9 10 11 12 13 14 15 16 17 18 19 20 21 22 23 24 25 26 27 28 29 30 31 32 33 34 35 36 37 38 39 40 41 42 43 44 45 46 47 48 49 50
000
ASUS41 KCLE 061102
RWRCLE
OHIO REGIONAL WEATHER ROUNDUP
NATIONAL WEATHER SERVICE CLEVELAND, OH
600 AM EST FRI MAR 06 2015

NOTE: "FAIR" INDICATES FEW OR NO CLOUDS BELOW 12,000 FEET WITH NO
SIGNIFICANT WEATHER AND/OR OBSTRUCTIONS TO VISIBILITY.

OHZ001>008-015>018-024>027-034-035-043-044-061200-
   NORTHWEST OHIO

CITY           SKY/WX    TMP DP  RH WIND       PRES   REMARKS
DEFIANCE       PTCLDY    -2  -7  79 S3        30.52R
FINDLAY        PTCLDY     4   0  83 S5        30.51R WCI  -5
TOLEDO EXPRESS PTCLDY    -3  -7  82 CALM      30.50S
TOLEDO EXEC    PTCLDY     4  -3  73 SW3       30.53R
LIMA           PTCLDY     7   2  80 S6        30.50R WCI  -3
$$

OHZ009>014-019>023-028>033-038-089-061200-
   NORTHEAST OHIO

CITY           SKY/WX    TMP DP  RH WIND       PRES   REMARKS
CLE-HOPKINS    PTCLDY     4  -2  76 SW7       30.55R WCI  -8
CLE-LAKEFRONT  PTCLDY     8   1  73 S7        30.53R WCI  -3
CUY CO. ARPT   NOT AVBL
LORAIN-ELYRIA  PTCLDY     1  -3  83 S5        30.52R WCI  -9
ASHTABULA      MOCLDY    -4 -10  75 S3        30.51R
AKRON-CANTON   PTCLDY     2  -4  76 S6        30.49R WCI  -9
WOOSTER        MOCLDY    -5  -9  83 CALM      30.51R
MANSFIELD      MOCLDY     3  -1  83 S6        30.49R WCI  -8
YOUNGSTOWN     PTCLDY     0  -4  83 S6        30.48R WCI -12
$$

OHZ042-051>053-060>062-070>072-077>081-061200-
  SOUTHWEST OHIO

CITY           SKY/WX    TMP DP  RH WIND       PRES   REMARKS
CINC-COVINGTON PTCLDY     1  -2  87 CALM      30.54R
CINC-LUNKEN    FOG        7   5  91 CALM      30.60R VSB 3/4
HAMILTON       PTCLDY     2  -2  83 CALM      30.57R
DAYTON         MOCLDY     7   2  80 W3        30.52R
WRIGHT-PAT AFB MOCLDY     7   2  82 W1        30.53R
DAYTON GENERAL MOCLDY     7   2  80 CALM      30.52R
WILMINGTON     MOCLDY     0  -5  79 CALM      30.51S
$$

OHZ036-037-039>041-045>050-054>059-063>069-073>076-082>088-061200-
  CENTRAL AND SOUTHEAST OHIO

CITY           SKY/WX    TMP DP  RH WIND       PRES   REMARKS
COLUMBUS       PTCLDY     5   1  83 SE3       30.53F
OSU AIRPORT    PTCLDY     2  -2  83 E3        30.52F
BOLTON FIELD   PTCLDY   N/A N/A N/A E3        30.53S
RICKENBACK AFB NOT AVBL
NEWARK         PTCLDY    -2  -7  79 CALM      30.54R
MARION         MOCLDY    -1  -5  82 SE5       30.51S WCI -11
LANCASTER      PTCLDY    -4  -8  83 CALM      30.54S
ZANESVILLE     PTCLDY    -5  -9  83 CALM      30.55R
NEW PHILLY     PTCLDY     3  -3  76 CALM      30.55R
$$


USA.gov is the U.S. government's official web portal to all federal, state and local government web resources and services.